Location: Newark
(45.1381°N, 84.1621°W)
Time: 14:01:14
(UTC+00:00)

ISS - Visible Passes

Search period start: 16 December 2019 00:00
Search period end: 26 December 2019 00:00
Orbit: 411 x 421 km, 51.6° (Epoch: 16 December)

Date Brightness Start Highest point End Pass type
(mag) Time Alt. Az. Time Alt. Az. Time Alt. Az.
20 Dec -0.8 12:19:10 10° S 12:21:40 20° SE 12:24:11 10° E visible
21 Dec -0.5 11:31:56 10° SSE 11:33:20 12° SE 11:34:44 10° ESE visible
22 Dec -2.8 12:17:50 10° SW 12:21:03 49° SE 12:24:17 10° ENE visible
23 Dec -1.9 11:29:39 10° SSW 11:32:35 30° SE 11:35:33 10° ENE visible
24 Dec -1.3 10:43:27 17° SSE 10:44:10 19° SE 10:46:34 10° E visible
24 Dec -3.8 12:17:16 10° WSW 12:20:35 71° NNW 12:23:54 10° ENE visible
25 Dec -3.7 11:30:38 32° SW 11:32:00 75° SSE 11:35:19 10° ENE visible
